Avian Flight Center Webcam (1 minute updates)

Looking East from Avian at mid-field (Taxiway E) towards Runway 20-2 (Click for full size image). Image will update automatically every minute.

Bremerton Airport Live Webcam

KPWT 271915Z AUTO 34005KT 10SM SCT028 21/14 A3008 RMK AO1

Time-lapse movie of yesterday's webcam images

If you are unable to view the movie, download and install the DivX Codec here